Weather History for KPTK - May, 2013

Change the Weather History Date:

Tuesday, May 28, 2013

  Actual Average (KFNT) Record (KFNT)
Temperature  
Mean Temperature 60 °F 61 °F  
Max Temperature 73 °F 72 °F 93 °F (2012)
Min Temperature 50 °F 49 °F 31 °F (2008)
Degree Days  
Heating Degree Days 5 6  
Month to date heating degree days 264  
Since 1 July heating degree days 6871  
Cooling Degree Days 0 2  
Month to date cooling degree days 22  
Year to date cooling degree days 26  
Growing Degree Days 10 (Base 50)    
Moisture  
Dew Point 60 °F    
Average Humidity 94    
Maximum Humidity 100    
Minimum Humidity 81    
Precipitation  
Precipitation 1.50 in 0.10 in 2.42 in (2013)
Month to date precipitation 2.78  
Year to date precipitation 10.69  
Snow  
Snow 0.00 in 0.00 in 0.00 in ()
Month to date snowfall 0.0  
Since 1 July snowfall 47.4  
Snow Depth -    
Sea Level Pressure  
Sea Level Pressure 29.90 in    
Wind  
Wind Speed 6 mph (SE)    
Max Wind Speed 10 mph    
Max Gust Speed -    
Visibility 4 miles    
Events Fog , Rain , Thunderstorm    
T = Trace of Precipitation, MM = Missing Value Source: NWS Daily Summary

Daily Weather History Graph

Daily Weather History Graph

Search for Another Location

Airport or City:

Trip Planner

Search our weather history database for the weather conditions in past years. The results will help you decide how hot, cold, wet, or windy it might be!

Date:

Astronomy

May. 28, 2013 Rise Set
Actual Time 6:00 AM EDT 9:01 PM EDT
Civil Twilight 5:26 AM EDT 9:35 PM EDT
Nautical Twilight 4:43 AM EDT 10:19 PM EDT
Astronomical Twilight 3:52 AM EDT 11:10 PM EDT
Moon No Moon Rise 9:49 AM EDT (5/28)
Length of Visible Light 16h 09m
Length of Day
15h 01m
Waning Gibbous, 83% of the Moon is Illuminated
May 28
Waning Gibbous
May 31
Last Quarter
Jun 8
New
Jun 16
First Quarter
Jun 23
Full

Hourly Weather History & Observations

Time (EDT) Temp. Dew Point Humidity Pressure Visibility Wind Dir Wind Speed Gust Speed Precip Events Conditions
12:02 AM 51.8 °F 48.2 °F 88% 30.03 in 3.0 mi ESE 10.4 mph - 0.01 in Rain Light Rain
12:53 AM 50.0 °F 48.9 °F 96% 30.01 in 10.0 mi East 9.2 mph - 0.03 in   Overcast
1:53 AM 51.1 °F 50.0 °F 96% 29.99 in 7.0 mi East 10.4 mph - N/A   Overcast
2:53 AM 51.1 °F 50.0 °F 96% 29.98 in 5.0 mi ESE 10.4 mph - N/A   Overcast
3:53 AM 51.1 °F 50.0 °F 96% 29.96 in 4.0 mi ESE 8.1 mph - 0.00 in Rain Light Rain
4:13 AM 51.8 °F 50.0 °F 94% 29.95 in 4.0 mi ESE 5.8 mph - 0.00 in   Overcast
4:53 AM 52.0 °F 51.1 °F 97% 29.95 in 4.0 mi ESE 4.6 mph - 0.00 in   Overcast
5:53 AM 52.0 °F 51.1 °F 97% 29.96 in 3.0 mi East 5.8 mph - N/A   Overcast
6:18 AM 51.8 °F 51.8 °F 100% 29.95 in 2.0 mi ESE 4.6 mph - N/A   Overcast
6:25 AM 51.8 °F 51.8 °F 100% 29.95 in 1.5 mi ESE 5.8 mph - N/A   Overcast
6:53 AM 52.0 °F 52.0 °F 100% 29.96 in 1.0 mi SE 5.8 mph - N/A   Overcast
7:53 AM 53.1 °F 52.0 °F 96% 29.97 in 1.0 mi Calm Calm - N/A   Overcast
8:53 AM 54.0 °F 53.1 °F 97% 29.96 in 1.0 mi SSE 4.6 mph - 0.09 in Rain Heavy Rain
9:53 AM 55.0 °F 54.0 °F 96% 29.92 in 3.0 mi East 4.6 mph - 0.15 in Rain Light Rain
10:00 AM 55.4 °F 53.6 °F 94% 29.91 in 2.5 mi SE 5.8 mph - 0.01 in Rain Light Rain
10:26 AM 55.4 °F 53.6 °F 94% 29.97 in 1.5 mi Calm Calm - 0.06 in Rain , Thunderstorm Thunderstorms and Rain
10:53 AM 55.9 °F 55.0 °F 97% 29.95 in 1.5 mi NNE 4.6 mph - 0.17 in Rain Light Rain
11:04 AM 55.4 °F 55.4 °F 100% 29.94 in 1.5 mi ESE 6.9 mph - 0.01 in Rain Light Rain
11:25 AM 55.4 °F 55.4 °F 100% 29.93 in 2.5 mi East 5.8 mph - 0.06 in Rain Light Rain
11:36 AM 55.4 °F 55.4 °F 100% 29.93 in 2.0 mi East 4.6 mph - 0.13 in Rain Rain
11:53 AM 57.0 °F 55.9 °F 96% 29.94 in 2.5 mi SE 5.8 mph - 0.13 in   Overcast
12:48 PM 62.6 °F 59.0 °F 88% 29.90 in 5.0 mi ESE 8.1 mph - N/A   Overcast
12:53 PM 62.1 °F 59.0 °F 90% 29.90 in 5.0 mi ESE 10.4 mph - N/A   Overcast
1:10 PM 62.6 °F 60.8 °F 94% 29.90 in 5.0 mi SSE 9.2 mph - N/A   Overcast
1:53 PM 62.1 °F 60.1 °F 93% 29.90 in 2.0 mi SE 8.1 mph - N/A   Overcast
2:25 PM 62.6 °F 60.8 °F 94% 29.90 in 2.0 mi Calm Calm - 0.00 in Rain , Thunderstorm Light Thunderstorms and Rain
2:27 PM 62.6 °F 60.8 °F 94% 29.90 in 0.8 mi Variable 5.8 mph - 0.05 in Rain , Thunderstorm Light Thunderstorms and Rain
2:53 PM 63.0 °F 62.1 °F 97% 29.87 in 1.5 mi East 5.8 mph - 0.21 in Rain , Thunderstorm Light Thunderstorms and Rain
3:09 PM 62.6 °F 62.6 °F 100% 29.88 in 1.5 mi NNE 3.5 mph - 0.01 in Rain Rain
3:32 PM 62.6 °F 62.6 °F 100% 29.88 in 1.0 mi ENE 3.5 mph - 0.14 in Rain Light Rain
3:48 PM 64.4 °F 64.4 °F 100% 29.88 in 2.0 mi Calm Calm - 0.15 in Rain Light Rain
3:53 PM 66.0 °F 63.0 °F 90% 29.88 in 4.0 mi Calm Calm - 0.15 in   Overcast
4:03 PM 66.2 °F 64.4 °F 94% 29.88 in 3.0 mi Calm Calm - N/A   Mostly Cloudy
4:25 PM 66.2 °F 64.4 °F 94% 29.88 in 2.5 mi Calm Calm - 0.02 in Rain Light Rain
4:49 PM 66.2 °F 64.4 °F 94% 29.87 in 3.0 mi SE 3.5 mph - 0.04 in   Mostly Cloudy
4:53 PM 68.0 °F 64.9 °F 90% 29.86 in 3.0 mi Calm Calm - 0.04 in   Mostly Cloudy
5:53 PM 70.0 °F 66.0 °F 87% 29.84 in 3.0 mi ESE 4.6 mph - 0.00 in   Mostly Cloudy
6:05 PM 69.8 °F 66.2 °F 88% 29.85 in 2.5 mi Calm Calm - 0.00 in Rain , Thunderstorm Light Thunderstorms and Rain
6:16 PM 69.8 °F 66.2 °F 88% 29.85 in 0.8 mi SSE 4.6 mph - 0.15 in Rain , Thunderstorm Heavy Thunderstorms and Rain
6:20 PM 68.0 °F 66.2 °F 94% 29.85 in 1.0 mi Calm Calm - 0.17 in Rain , Thunderstorm Heavy Thunderstorms and Rain
6:30 PM 68.0 °F 66.2 °F 94% 29.84 in 0.5 mi East 3.5 mph - 0.41 in Fog , Rain , Thunderstorm Heavy Thunderstorms and Rain
6:43 PM 68.0 °F 66.2 °F 94% 29.84 in 1.5 mi Variable 4.6 mph - 0.53 in Rain , Thunderstorm Light Thunderstorms and Rain
6:48 PM 69.8 °F 66.2 °F 88% 29.83 in 6.0 mi West 5.8 mph - 0.53 in Rain , Thunderstorm Light Thunderstorms and Rain
6:50 PM 69.8 °F 66.2 °F 88% 29.84 in 6.0 mi West 6.9 mph - 0.53 in Rain Light Rain
6:53 PM 70.0 °F 66.0 °F 87% 29.83 in 9.0 mi WSW 5.8 mph - 0.53 in Rain Light Rain
7:12 PM 69.8 °F 66.2 °F 88% 29.83 in 7.0 mi SSE 4.6 mph - 0.00 in   Mostly Cloudy
7:53 PM 69.1 °F 66.9 °F 93% 29.84 in 5.0 mi SE 4.6 mph - 0.00 in   Mostly Cloudy
8:53 PM 69.1 °F 66.9 °F 93% 29.83 in 3.0 mi Calm Calm - N/A   Mostly Cloudy
9:39 PM 69.8 °F 66.2 °F 88% 29.82 in 5.0 mi SE 3.5 mph - 0.00 in Rain , Thunderstorm Light Thunderstorms and Rain
9:53 PM 69.1 °F 66.9 °F 93% 29.83 in 5.0 mi South 3.5 mph - 0.00 in Thunderstorm Overcast
10:07 PM 69.8 °F 68.0 °F 94% 29.84 in 5.0 mi South 3.5 mph - N/A   Overcast
10:53 PM 70.0 °F 66.9 °F 90% 29.83 in 8.0 mi South 5.8 mph - 0.00 in   Overcast
11:53 PM 72.0 °F 66.0 °F 81% 29.82 in 10.0 mi South 6.9 mph - 0.00 in Thunderstorm Thunderstorm